Terug naar catalogus

FENGYUN 1C DEB

LostSSO
NORAD 31687·DEBRIS·🇨🇳 China

Gelanceerd May 10, 1999 vanaf Taiyuan Satellite Launch Center

Loading…

Volgende Passages (komende 24 uur)

TLE

VerouderdSource: Space-Track

Epoch: Sep 18, 2022, 22:41 UTC

1 31687U 99025CCV 22261.94517906  .00002214  00000-0  95882-3 0  9998
2 31687  98.7754 334.4837 0012292 268.9281  91.0490 14.25286841797536

Volg FENGYUN 1C DEB in realtime met AllMySat

Download on the App Store